Location: Newark
(51.3000°N, 178.2000°W)
Time: 02:08:56
(UTC+00:00)

ISS - Pass Details

Date: 12 May 2021
Orbit: 417 x 422 km, 51.6° (Epoch: 15 June)

Event Time Altitude Azimuth Distance (km) Brightness Sun altitude
Exits shadow 11:40:38 24° 85° (E) 925 -2.0 -20.4°
Drops below altitude 10° 11:42:08 10° 80° (E) 1,509 -0.9 -20.4°
Sets 11:44:15 0° 77° (ENE) 2,377 0.2 -20.4°
